Location: Risskov
(56.1972°N, 10.2480°E)
Time: 00:18:16
(UTC+00:00)

CZ-4C R/B - Pass Details

Date: 05 July 2020
Orbit: 632 x 1369 km, 63.4° (Epoch: 02 August)

Event Time Altitude Azimuth Distance (km) Brightness Sun altitude
Rises 21:34:47 0° 296° (WNW) 3,514 6.3 -7.8°
Reaches altitude 10° 21:37:11 10° 302° (WNW) 2,674 5.8 -8.0°
Maximum altitude 21:43:26 55° 20° (NNE) 1,294 3.5 -8.3°
Drops below altitude 10° 21:50:55 10° 97° (E) 3,188 4.9 -8.7°
Sets 21:54:01 0° 101° (ESE) 4,240 5.5 -8.9°
